Flag for France Weather past 2 weeks in Limoges, France

Now
54 °F

Light rain. Passing clouds.


Feels Like: 54 °F
Forecast: 47 / 53 °F
Wind: 1 mph from East

Location: Limoges Airport

Current Time: Apr 26, 2015 at 11:18:25 PM

Latest Report: Apr 26, 2015 at 11:00 PM


Visibility: 4 mi

Pressure: 29.62 "Hg

Humidity: 100%

Dew point: 54 °F

Location of LimogesLocation

Historic Weather in Limoges — Graph

°F

Limoges temperature yesterday

Maximum temperature yesterday: 64 °F (at 4:00 PM)
Minimum temperature yesterday: 54 °F (at 4:00 AM)
Average temperature yesterday: 57 °F

Past Weeks' High & Low Weather Summary

 TemperatureHumidityPressure
High79 °F (Apr 14, 4:30 PM)100% (Apr 12, 5:30 AM)30.42 "Hg (Apr 12, 5:30 AM)
Low45 °F (Apr 12, 5:30 AM)17% (Apr 15, 4:30 PM)29.62 "Hg (Apr 26, 5:00 PM)
Average59 °F64%30.08 "Hg
* Reported Apr 11 10:00 PM — Apr 26 10:00 PM, Limoges, Weather by CustomWeather, © 2015

Note: Actual official high and low records may vary slightly from our data, if they occured in-between our weather recording intervals... More about our weather records

Advertising

Limoges weather history for previous 24 hours

 ConditionsComfort  
Time TempWeatherWind HumidityBarometerVisibility
10:00 PM
Sun, Apr 26
54 °FPartly cloudy.2 mph100%29.62 "HgN/A
9:30 PM54 °FMore clouds than sun.3 mph100%29.62 "HgN/A
9:00 PM55 °FBroken clouds.3 mph94%29.62 "HgN/A
8:30 PM55 °FLight rain. Mostly cloudy.No wind94%29.62 "HgN/A
8:00 PM55 °FPartly sunny.6 mph94%29.62 "HgN/A
7:30 PM55 °FHeavy rain. Fog.9 mph94%29.62 "Hg1 mi
7:00 PM59 °FLight rain. Broken clouds.8 mph82%29.62 "HgN/A
6:30 PM61 °FMostly cloudy.5 mph77%29.62 "HgN/A
6:00 PM61 °FPartly sunny.5 mph77%29.62 "HgN/A
5:30 PM61 °FBroken clouds.5 mph77%29.62 "HgN/A
5:00 PM61 °FBroken clouds.5 mph77%29.62 "HgN/A
4:30 PM61 °FBroken clouds.8 mph77%29.65 "HgN/A
4:00 PM59 °FPartly sunny.8 mph82%29.65 "HgN/A
3:30 PM59 °FMostly cloudy.7 mph82%29.65 "HgN/A
3:00 PM59 °FPartly sunny.8 mph82%29.68 "HgN/A
2:30 PM57 °FLight rain. Mostly cloudy.8 mph88%29.68 "HgN/A
2:00 PM57 °FRain. Overcast.10 mph88%29.71 "HgN/A
1:30 PM61 °FBroken clouds.10 mph77%29.71 "HgN/A
1:00 PM59 °FBroken clouds.12 mph82%29.71 "HgN/A
12:30 PM59 °FMostly cloudy.9 mph82%29.71 "HgN/A
12:00 PM59 °FOvercast.7 mph88%29.71 "HgN/A
11:30 AM57 °FClear.5 mph94%29.71 "HgN/A
11:00 AM57 °FLight rain. Mostly cloudy.5 mph88%29.71 "HgN/A
10:30 AM55 °FRain. Broken clouds.10 mph94%29.74 "HgN/A
10:00 AM55 °FPartly sunny.6 mph88%29.74 "HgN/A
9:30 AM55 °FClear.7 mph82%29.74 "HgN/A
9:00 AM55 °FClear.6 mph82%29.74 "HgN/A
8:30 AM54 °FClear.8 mph88%29.74 "HgN/A
8:00 AM52 °FClear.6 mph88%29.74 "HgN/A
7:30 AM52 °FClear.6 mph88%29.74 "HgN/A
7:00 AM50 °FClear.7 mph94%29.74 "HgN/A
6:30 AM50 °FClear.6 mph94%29.74 "HgN/A
6:00 AM50 °FClear.3 mph94%29.77 "HgN/A
5:00 AM50 °FClear.5 mph94%29.77 "HgN/A
4:30 AM50 °FClear.5 mph94%29.80 "HgN/A
4:00 AM50 °FClear.6 mph94%29.80 "HgN/A
3:30 AM50 °FClear.6 mph94%29.80 "HgN/A
3:00 AM50 °FClear.6 mph94%29.80 "HgN/A
2:30 AM52 °FClear.6 mph94%29.83 "HgN/A
2:00 AM52 °FClear.6 mph94%29.83 "HgN/A
1:30 AM52 °FClear.6 mph88%29.83 "HgN/A
1:00 AM52 °FClear.6 mph88%29.86 "HgN/A
12:30 AM54 °FClear.5 mph82%29.86 "HgN/A
12:00 AM54 °FClear.3 mph82%29.86 "HgN/A
11:00 PM
Sat, Apr 25
57 °FClear.No wind72%29.89 "HgN/A
Weather by CustomWeather, © 2015

See weather overviewHow to use our weather pages